Weather in Letnik

Russia / Republic of Khakassia     53°30′24″N   91°38′32″E
temp.,
°C
wind,
m/s
gust,
m/s
humid.,
%
clouds,
%
prec.,
mm/h
press.,
hPa
HPBL,
m
24 april, sat
sat2401:00+1ene007096 0.0 103310
04:000ne007586 0.0 103210
07:00+1nw127381 0.0 1031150
10:00+4wnw226299 0.0 1030982
13:00+6nw3350100 0.1 10281545
16:00+7nnw2345100 0.0 10271558
19:00+6nnw3446100 0.0 1027685
22:00+3wsw2260100 0.0 102917
25 april, sun
sun2501:00+1sw349591 0.1 1030223
04:000wsw498298 0.0 1030301
07:00+1wsw3773100 0.0 1032330
10:00+5wnw456676 0.1 10311104
13:00+7nw4546100 0.8 10301726
16:00+8nnw5547100 0.9 10291536
19:00+6n455399 1.2 1030784
22:00+3wnw367069 0.0 1032138
26 april, mon
mon2601:00+2w228580 0.0 103213
04:00+1sw239641 0.0 103250
07:00+2sw12908 0.0 1033119
10:00+6sw22615 0.0 1032944
13:00+9sse114494 0.1 10311740
16:00+10ese213783 0.0 10291915
19:00+9se334316 0.0 1029414
22:00+5se365774 0.0 1029105
27 april, tue
tue2701:00+4se2468100 0.0 102971
04:00+3se2273100 0.0 102833
07:00+3se2371100 0.0 1027104
10:00+9sse454752 0.0 1024505
13:00+13w101240100 0.1 10221926
16:00+11wsw111363100 0.3 10221281
19:00+8wnw3570100 1.6 1024271
22:00+6w378266 2.1 1026241
28 april, wed
wed2801:00+5ssw2288100 2.9 102622
04:00+5sse2288100 0.0 102519
07:00+6sse2281100 0.0 102589
10:00+8ssw4577100 0.3 1024584
13:00+6se5889100 1.6 1022420
16:00+10se5675100 0.6 1018413
19:00+10se3683100 0.6 1016152
22:00+8se2390100 0.0 101541